Погода Макушино

Погода Макушино : погода сейчас, прогноз погоды и архив. Всё, что Вы хотите узнать о погоде Макушино!

Поиск расширенной информации на нашем сайте:

Другие новости

Новости СМИ2

Главная страница сайта

Новости сайта

02.10.2013

Напоминаем, что на нашем новом сайте вы можете получить высокодетализированные прогнозы погоды по пунктам России, СНГ и мира (включающие важные для авиации метеовеличины, такие как направление и скорость ветра, видимость, явления погоды, количество и форма облачности, нижняя и верхняя граница облачности), а также ознакомиться с разнообразными материалами по авиационной метеорологии и подборкой полезных ссылок на эту тему.

Сайт Метеоцентр.Азия посвящён разработке технологий оптимизации авиаметеорологического обслуживания, включая проектирование и перспективное создание нескольких автоматизированных авиаметеорологических систем:
- система выпуска высокодетальных прогностических карт явлений погоды для нижнего воздушного пространства по России и ближнему зарубежью;
- система верификации прогнозов TAF (выпускаемых синоптиками официальных АМСГ РФ и ближнего зарубежья) и AUTOTAF (выпускаемых сайтом Метеоцентр.Азия) - выявление ошибок, онлайн-сопоставление с фактической погодой METAR, автоматическое внесение коррективов в прогнозы при резком отклонении фактической погоды от прогноза, подсчёт оправдываемости прогнозов по элементам и в целом;
- система обработки, анализа и отображения авиаметеорологической информации для применения провайдерами метеорологической информации.


Погода Макушино - сегодня

Время (UTC), дата Ветер
(°,м/с) 
Видим.   Явления Облачность Т
(°С)
Тd
(°С)
f(%) Тe
(°С)
Pmin
(гПа)
dP
(гПа)
Po
(мм)
O2
(г/м3)
Тmin Tmax R s Состояние
почвы
00 25.03.17 270 (З) 20000 м    10/10 1000 м 
[Sc]
-0.8 -2.9 86 -3  1014.9  1.3  748  303           
03 25.03.17 260 (З) 20000 м    9/9 1000 м 
[Sc]
-0.5 -3.2 82 -4  1016.7  1.7  749  303  -4.2      27  равномерный
сухой снег
100% 
06 25.03.17 260 (З) 20000 м    1/0 верхняя 
[Ci fib]
+0.9 -3.7 71 -2  1018.1  1.4  750  302           
09 25.03.17 240 (ЮЗ) 20000 м    ясно 
+2.8 -3.8 62 1018.8  0.8  751  300           
12 25.03.17 210 (ЮЗ) 20000 м    3/0 верхняя 
[Ci fib]
+2.4 -3.3 66 +1  1019.4  0.5  751  301           
15 25.03.17 200 (Ю) 20000 м    4/3 1000 м верхняя 
[Sc|Ci fib]
-1 -3.9 81 -3  1019.8  0.3  752  304    +2.9       
18 25.03.17 180 (Ю) 20000 м    ясно 
-1.9 -5.4 77 -5  1019.7  -0.2  752  306           
21 25.03.17 160 (Ю) 20000 м    ясно 
-4 -6.6 82 -6  1019.2  -0.6  751  308           
00 26.03.17 180 (Ю) 20000 м    5/5 1000 м 
[Sc]
-1.8 -4.9 79 -5  1018.3  -0.7  751  305           
03 26.03.17 180 (Ю) 20000 м    10/10 1000 м 
[Sc]
-1.3 -3.7 84 -5  1017.9  -0.4  750  304  -4.2      24  равномерный
сухой снег
100% 
06 26.03.17 170 (Ю) 20000 м    10/10 1000 м 
[Sc]
-0.5 -2.8 84 -4  1016.8  -1.1  749  303           
09 26.03.17 170 (Ю) 5{10}  20000 м    9/9 1000 м 
[Sc]
+0.8 -3.3 74 -2  1015  -1.7  748  301           
12 26.03.17 170 (Ю) 20000 м    10/10 1000 м 
[Sc]
+0.3 -3.3 77 -2  1013.2  -1.8  747  301           
15 26.03.17 160 (Ю) 20000 м    10/10 1000 м 
[Sc]
-1 -3.4 84 -4  1011.7  -1.6  746  302    +1.1       
18 26.03.17 170 (Ю) 20000 м    10/10 1000 м 
[Sc]
-0.8 -2.8 86 -4  1010.2  -1.4  745  301           
21 26.03.17 190 (Ю) 4000 м  слаб. снег  10/10 600 м 
[Ns]
+0.1 -1.1 92 -2  1008.8  -1.4  744  300           
00 27.03.17 230 (ЮЗ) 20000 м  {снег}  10/10 600 м 
[Ns]
+0.6 -1.7 85 -2  1008.5  -0.2  743  299           
03 27.03.17 210 (ЮЗ) 20000 м    6/6 600 м средняя 
[As op]
-0.2 -3.2 80 -3  1009.6  744  300  -1    0.0  18  равномерный
сухой снег
100% 
06 27.03.17 190 (Ю) 20000 м    3/3 1000 м верхняя 
[Sc|Ci fib]
-0.1 -2.8 82 -3  1010.3  0.7  745  300           
09 27.03.17 220 (ЮЗ) 20000 м    6/0 верхняя 
[Ci sp]
+2.1 -5.2 58 -1  1010.2  0.1  745  298           
12 27.03.17 200 (Ю) 20000 м    9/9 1000 м 
[Sc]
+0.8 -6.1 60 -2  1010  -0.3  744  300           
15 27.03.17 170 (Ю) 4{10}  20000 м    10/10 1000 м 
[Sc]
-0.1 -4.4 73 -3  1009.9  0.1  744  301    +2.2       
18 27.03.17 180 (Ю) 20000 м  {снег}  10/10 600 м 
[Ns]
-1.6 -3.5 87 -3  1008.9  -1.1  744  302           
21 27.03.17 340 (С) 4000 м  слаб. снег  10/10 600 м 
[Ns]
-2.3 -3.6 91 -2  1007.1  -1.8  742  302           
00 28.03.17 250 (З) 20000 м  {снег}  10/10 600 м 
[Ns]
-3 -4 93 -3  1006.1  -1  741  303           
Время (UTC), дата Ветер
(°,м/с) 
Видим.   Явления Облачность Т
(°С)
Тd
(°С)
f(%) Тe
(°С)
Pmin
(гПа)
dP
(гПа)
Po
(мм)
O2
(г/м3)
Тmin Tmax R s Состояние
почвы

Для получения пояснительной информации подведите курсор к названию столбца.

ПОГОДА Макушино - архив

Всё, что Вы хотите узнать о погоде Макушино - удобно и подробно!

Выберите нужную дату (начиная с 1 января 2015* года) и нажмите кнопку "Найти".
Будут отображены архивные сводки погоды по пункту Макушино, начиная с указанной даты.


Отображать данные в формате CSV (для использования в таблицах Excel)


Внимание! Наш архив погоды предназначен исключительно для личного некоммерческого использования в познавательных целях. Если Вам необходимы официальные справки о состоянии погоды (для производственных, юридических, коммерческих и т.п. целей), обращайтесь в органы Росгидромета.

*Примечание: данная дата относится к архиву по метеостанциям СССР (Россия, СНГ, Балтия).
Архив по метеостанциям Зарубежной Европы и Азии (кроме Китая) хранится 10 дней, по другим регионам земного шара (Китай, Африка, Америка, Австралия, Океания) - 1 день.

Макушино - район местоположения метеостанции


Название, широта, долгота, высота метеостанции:
Макушино 55.2°ш. 67.3°д. 140 м над ур. моря [Российская Федерация]

Дополнительная информация

В oтличие oт бoльшинства пoгoдных сайтoв мы публикуем пoдрoбную метеoинфoрмацию в детальнoм прoфессиoнальнoм фoрмате.

Характеристики температуры и влажнoсти вoздуха измеряются на высoте 2 м в тени вдали oт зданий и деревьев.
Скoрoсть ветра измеряется на высoте 10 м (на урoвне рoста челoвека скoрoсть ветра ниже в 1.5-2 раза). Если метеoстанция нахoдится в гoрoде или в лесу, тo скoрoсть ветра занижена на 2-4 м/с пo сравнению с oткрытым местoм. Скoрoсть ветра над акватoриями крупных рек и oзёр, а также на вершинах хoлмoв на 2-5 м/с выше, чем в oбычных услoвиях.
Атмoсфернoе давление в разных тoчках местнoсти мoжет значительнo oтличаться oт давления на метеoстанции, в зависимoсти oт услoвий рельефа (при пoдъёме на 10 м давление пoнижается примернo на 1 мм рт.ст.).